Americana, Brazil
Current Conditions -  °F | °C
As of 5:00 PM on Friday 31 Oct 2014 (Local Time) from SBKP Reporting Station
Few Clouds Few Clouds  
Wind Chill: 91°   Ceiling: Unl
Heat Index: 91°   Visibility: 6mi
Dew Point: 54°   Wind: 8mph
Humidity: 28%   Direction: 360°N
Pressure: 29.88"   Gusts: NA
Location:  22.75°S, 47.33°W
Report Text: SBKP 311900Z 36007KT 9999 FEW045 33/12 Q1012
Loading
Personal Weather Stations






























Interactive Weather Map
Tropical Storm Tracking
New forecast layout! Learn more

10-Day Weather Forecast

Advertisements
Track Severe Weather on mobile